Regional Weather Roundup
Issued by NWS

Home | Current Version | Previous Version | Graphics & Text | Print | Product List | Glossary Off
Versions: 1 2 3 4 5 6 7 8 9 10 11 12 13 14 15 16 17 18 19 20 21 22 23 24 25 26 27 28 29 30 31 32 33 34 35 36 37 38 39 40 41 42 43 44 45 46 47 48 49 50

000
ASUS43 KTOP 302159
RWRKS

WEATHER ROUNDUP FOR KANSAS
NATIONAL WEATHER SERVICE GOODLAND KS
400 PM CST FRI JAN 30 2015

NOTE:  "FAIR" INDICATES FEW OR NO CLOUDS BELOW 12,000 FEET WITH NO
SIGNIFICANT WEATHER AND/OR OBSTRUCTIONS TO VISIBILITY.

KSZ001>006-013>018-027>032-041>047-302300-
NORTHWEST KANSAS

CITY           SKY/WX    TMP DP  RH WIND       PRES   REMARKS
GOODLAND       CLOUDY    45  28  51 S18       30.16F
HAYS           CLOUDY    45  23  42 S14G23    30.32S
HILL CITY      CLOUDY    46  25  43 S16       30.28S
RUSSELL        CLOUDY    43  26  51 S16       30.32R
$$

KSZ061>065-074>080-084>089-302300-
SOUTHWEST KANSAS

CITY           SKY/WX    TMP DP  RH WIND       PRES   REMARKS
DODGE CITY     CLOUDY    42  24  49 S15       30.30F
ELKHART          N/A     36  28  73 S12         N/A  WCI  28
GARDEN CITY    CLOUDY    43  26  51 S15       30.25F
LIBERAL        CLOUDY    45  25  45 S13       30.30F
$$

KSZ066>073-081>083-090>101-302300-
SOUTHEAST KANSAS

CITY           SKY/WX    TMP DP  RH WIND       PRES   REMARKS
CHANUTE        PTSUNNY   43  23  45 E6        30.43F
COFFEYVILLE    CLOUDY    44  24  45 N3        30.43F
HUTCHINSON     CLOUDY    42  26  53 S14       30.38F
MEDICINE LODGE   N/A     41  27  57 SE8       30.37F
NEWTON         CLOUDY    41  23  48 S9        30.41S
PARSONS        CLOUDY    43  23  45 E3        30.44F
WICHITA INTL   CLOUDY    42  25  50 S8        30.40F
WICHITA JABRA  CLOUDY    42  25  50 S7        30.40F
WINFIELD       CLOUDY    44  23  43 VRB3      30.42F
$$

KSZ007>012-019>026-033>040-048>060-102>105-302300-
NORTHEAST KANSAS

CITY           SKY/WX    TMP DP  RH WIND       PRES   REMARKS
CONCORDIA      CLOUDY    44  26  49 S14       30.34F
EMPORIA        CLOUDY    41  23  48 S7        30.41F
LAWRENCE       PTSUNNY   41  22  46 S7        30.43F
MANHATTAN      PTSUNNY   44  25  47 S8        30.40F
OLATHE IND     PTSUNNY   39  22  50 S7        30.43F
OLATHE EXE     PTSUNNY   40  21  46 SW6       30.42F
SALINA         CLOUDY    44  26  49 S12       30.39S
TOPEKA BILLARD PTSUNNY   41  21  44 SE8       30.42F
TOPEKA FORBES  PTSUNNY   42  21  43 SE10      30.40F
$$



USA.gov is the U.S. government's official web portal to all federal, state and local government web resources and services.